This is the latest recevied weather packets stored in our database for station/object N1YZ. If no packets are shown the sender has not sent any weather packets the latest 10 day(s).
| Time | Temp. | Humidity | Pressure | Rain* | Wind** | Luminosity | Snow |
|---|---|---|---|---|---|---|---|
| 1777846504 | 21.67° C | 40% | 1037.2 hPa | 0 mm | - | 30 W/m² | - |
| 1777846201 | 21.67° C | 40% | 1037.2 hPa | 0 mm | - | 33 W/m² | - |
| 1777845897 | 22.78° C | 36% | 1037.3 hPa | 0 mm | - | 45 W/m² | - |
| 1777845589 | 23.89° C | 35% | 1037.2 hPa | 0 mm | - | 43 W/m² | - |
| 1777845286 | 23.33° C | 40% | 1037.4 hPa | 0 mm | - | 302 W/m² | - |
| 1777844983 | 21.67° C | 40% | 1037.4 hPa | 0 mm | - | 317 W/m² | - |
| 1777844681 | 22.22° C | 39% | 1037.6 hPa | 0 mm | - | 95 W/m² | - |
| 1777844377 | 21.67° C | 42% | 1037.6 hPa | 0 mm | - | 154 W/m² | - |
| 1777844077 | 21.67° C | 40% | 1037.5 hPa | 0 mm | - | 45 W/m² | - |
| 1777843772 | 22.22° C | 39% | 1037.4 hPa | 0 mm | - | 69 W/m² | - |
| 1777843470 | 22.22° C | 38% | 1037.4 hPa | 0 mm | - | 127 W/m² | - |
| 1777843167 | 22.22° C | 44% | 1037.6 hPa | 0 mm | - | 364 W/m² | - |
| 1777842864 | 22.22° C | 38% | 1037.8 hPa | 0 mm | - | 93 W/m² | - |
| 1777842559 | 21.67° C | 39% | 1037.7 hPa | 0 mm | - | 98 W/m² | - |
| 1777842256 | 21.11° C | 40% | 1037.9 hPa | 0 mm | - | 128 W/m² | - |
| 1777841951 | 21.67° C | 40% | 1037.7 hPa | 0 mm | - | 49 W/m² | - |
| 1777841649 | 21.67° C | 39% | 1038 hPa | 0 mm | - | 55 W/m² | - |
| 1777841344 | 21.67° C | 40% | 1038 hPa | 0 mm | - | 48 W/m² | - |
| 1777841042 | 21.67° C | 40% | 1037.8 hPa | 0 mm | - | 53 W/m² | - |
| 1777840739 | 21.67° C | 44% | 1038.2 hPa | 0 mm | - | 47 W/m² | - |
| 1777840436 | 22.22° C | 37% | 1038.1 hPa | 0 mm | - | 69 W/m² | - |
| 1777840133 | 22.78° C | 39% | 1038.3 hPa | 0 mm | - | 80 W/m² | - |
| 1777839831 | 22.22° C | 38% | 1038.5 hPa | 0 mm | - | 543 W/m² | - |
| 1777839529 | 21.67° C | 39% | 1038.5 hPa | 0 mm | - | 553 W/m² | - |
| 1777839226 | 21.67° C | 38% | 1038.5 hPa | 0 mm | - | 459 W/m² | - |
* Rain latest hour (hover to see other rain measurements)
** Current wind speed in m/s (hover to see current wind gust speed)